TimeHADT,TemperatureF,Dew PointF,Humidity,Sea Level PressureIn,VisibilityMPH,Wind Direction,Wind SpeedMPH,Gust SpeedMPH,PrecipitationIn,Events,Conditions,WindDirDegrees,DateUTC
12:16 AM,57.2,55.4,94,29.96,5.0,WSW,19.6,25.3,N/A,,Overcast,250,2013-08-24 09:16:00
12:36 AM,57.2,55.4,94,29.95,6.0,West,16.1,24.2,N/A,,Overcast,260,2013-08-24 09:36:00
12:56 AM,57.2,55.4,94,29.95,3.0,West,16.1,21.9,N/A,,Overcast,260,2013-08-24 09:56:00
1:16 AM,57.2,55.4,94,29.95,2.5,West,15.0,23.0,N/A,,Overcast,260,2013-08-24 10:16:00
1:36 AM,59.0,57.2,94,29.95,2.5,WSW,20.7,28.8,N/A,,Overcast,250,2013-08-24 10:36:00
1:56 AM,59.0,57.2,94,29.94,3.0,WSW,26.5,29.9,N/A,,Overcast,250,2013-08-24 10:56:00
2:16 AM,59.0,57.2,94,29.94,2.5,WSW,21.9,32.2,N/A,,Overcast,250,2013-08-24 11:16:00
2:36 AM,60.8,57.2,88,29.95,3.0,West,20.7,26.5,N/A,,Overcast,260,2013-08-24 11:36:00
2:56 AM,60.8,57.2,88,29.94,4.0,WSW,21.9,28.8,N/A,,Overcast,250,2013-08-24 11:56:00
3:16 AM,60.8,57.2,88,29.94,3.0,WSW,23.0,31.1,N/A,,Overcast,250,2013-08-24 12:16:00
3:36 AM,60.8,57.2,88,29.94,5.0,West,21.9,29.9,N/A,,Overcast,260,2013-08-24 12:36:00
3:56 AM,60.8,57.2,88,29.94,9.0,West,21.9,26.5,N/A,,Overcast,270,2013-08-24 12:56:00
4:16 AM,60.8,57.2,88,29.94,5.0,West,19.6,24.2,N/A,,Overcast,270,2013-08-24 13:16:00
4:36 AM,60.8,59.0,94,29.94,10.0,West,20.7,28.8,N/A,,Overcast,280,2013-08-24 13:36:00
4:56 AM,60.8,59.0,94,29.94,10.0,WNW,18.4,27.6,N/A,,Overcast,290,2013-08-24 13:56:00
5:16 AM,60.8,59.0,94,29.94,10.0,West,15.0,20.7,N/A,,Overcast,280,2013-08-24 14:16:00
5:36 AM,60.8,57.2,88,29.94,5.0,SW,5.8,-,N/A,,Overcast,220,2013-08-24 14:36:00
5:56 AM,60.8,57.2,88,29.94,10.0,SW,4.6,-,N/A,,Overcast,230,2013-08-24 14:56:00
6:16 AM,60.8,57.2,88,29.93,6.0,South,5.8,-,N/A,,Overcast,170,2013-08-24 15:16:00
6:36 AM,59.0,57.2,94,29.93,8.0,SSE,3.5,-,N/A,,Overcast,150,2013-08-24 15:36:00
6:56 AM,57.2,55.4,94,29.92,10.0,SSE,9.2,-,N/A,,Overcast,150,2013-08-24 15:56:00
7:16 AM,60.8,59.0,94,29.92,10.0,WSW,17.3,25.3,N/A,,Overcast,240,2013-08-24 16:16:00
7:36 AM,62.6,60.8,94,29.91,9.0,WSW,21.9,32.2,N/A,,Overcast,240,2013-08-24 16:36:00
7:56 AM,62.6,60.8,94,29.91,7.0,WSW,21.9,27.6,N/A,,Overcast,250,2013-08-24 16:56:00
8:16 AM,59.0,55.4,88,29.92,10.0,NNW,5.8,-,N/A,,Overcast,340,2013-08-24 17:16:00
8:36 AM,62.6,60.8,94,29.92,10.0,ESE,5.8,26.5,N/A,,Overcast,120,2013-08-24 17:36:00
8:56 AM,62.6,60.8,94,29.92,10.0,WSW,21.9,32.2,N/A,,Overcast,240,2013-08-24 17:56:00
9:16 AM,64.4,62.6,94,29.91,10.0,WSW,23.0,33.4,N/A,,Overcast,240,2013-08-24 18:16:00
9:36 AM,64.4,62.6,94,29.90,10.0,SW,27.6,36.8,N/A,,Overcast,230,2013-08-24 18:36:00
9:56 AM,64.4,60.8,88,29.90,10.0,SW,25.3,33.4,N/A,,Overcast,230,2013-08-24 18:56:00
10:16 AM,64.4,60.8,88,29.90,10.0,SSW,15.0,20.7,N/A,,Overcast,210,2013-08-24 19:16:00
10:36 AM,64.4,60.8,88,29.89,10.0,SSW,20.7,27.6,N/A,,Overcast,200,2013-08-24 19:36:00
10:56 AM,62.6,60.8,94,29.89,5.0,South,13.8,25.3,N/A,,Overcast,180,2013-08-24 19:56:00
11:16 AM,60.8,57.2,88,29.89,8.0,South,17.3,-,N/A,,Overcast,180,2013-08-24 20:16:00
11:36 AM,60.8,57.2,88,29.88,8.0,South,18.4,25.3,N/A,,Overcast,180,2013-08-24 20:36:00
11:56 AM,60.8,57.2,88,29.88,10.0,South,19.6,-,N/A,,Overcast,180,2013-08-24 20:56:00
12:16 PM,60.8,57.2,88,29.88,10.0,South,17.3,25.3,N/A,,Overcast,180,2013-08-24 21:16:00
12:36 PM,60.8,57.2,88,29.88,8.0,South,17.3,23.0,0.03,,Overcast,180,2013-08-24 21:36:00
12:56 PM,62.6,60.8,94,29.89,9.0,WSW,25.3,41.4,0.04,,Overcast,240,2013-08-24 21:56:00
1:16 PM,62.6,60.8,94,29.89,6.0,WSW,32.2,49.5,0.01,,Overcast,240,2013-08-24 22:16:00
1:36 PM,62.6,59.0,88,29.87,5.0,SW,35.7,42.6,0.01,,Overcast,230,2013-08-24 22:36:00
1:56 PM,62.6,59.0,88,29.87,4.0,SW,32.2,39.1,0.01,,Overcast,230,2013-08-24 22:56:00
2:16 PM,62.6,59.0,88,29.87,3.0,WSW,26.5,35.7,0.01,,Overcast,240,2013-08-24 23:16:00
2:36 PM,60.8,57.2,88,29.87,3.0,SW,34.5,43.7,0.01,,Overcast,230,2013-08-24 23:36:00
2:56 PM,60.8,57.2,88,29.86,9.0,SW,32.2,42.6,0.01,,Overcast,230,2013-08-24 23:56:00
3:16 PM,60.8,57.2,88,29.86,7.0,SW,31.1,41.4,N/A,,Overcast,230,2013-08-25 00:16:00
3:36 PM,59.0,55.4,88,29.87,5.0,SW,26.5,36.8,N/A,,Overcast,230,2013-08-25 00:36:00
3:56 PM,59.0,55.4,88,29.88,3.0,SW,27.6,36.8,N/A,,Overcast,230,2013-08-25 00:56:00
4:16 PM,59.0,57.2,94,29.89,3.0,SW,26.5,33.4,N/A,,Overcast,230,2013-08-25 01:16:00
4:36 PM,59.0,55.4,88,29.89,10.0,WSW,27.6,35.7,N/A,,Overcast,250,2013-08-25 01:36:00
4:56 PM,57.2,55.4,94,29.89,10.0,WSW,24.2,31.1,N/A,,Overcast,250,2013-08-25 01:56:00
5:16 PM,57.2,55.4,94,29.89,10.0,WSW,18.4,24.2,N/A,,Overcast,250,2013-08-25 02:16:00
5:36 PM,55.4,53.6,94,29.89,5.0,WSW,19.6,23.0,N/A,,Overcast,250,2013-08-25 02:36:00
5:56 PM,55.4,53.6,94,29.90,5.0,West,19.6,23.0,N/A,,Overcast,260,2013-08-25 02:56:00
6:16 PM,55.4,53.6,94,29.91,8.0,WSW,21.9,26.5,N/A,,Overcast,250,2013-08-25 03:16:00
6:36 PM,55.4,53.6,94,29.92,5.0,WSW,13.8,-,N/A,,Overcast,250,2013-08-25 03:36:00
6:56 PM,55.4,53.6,94,29.92,3.0,WSW,18.4,-,N/A,,Overcast,250,2013-08-25 03:56:00
7:16 PM,55.4,53.6,94,29.92,2.5,West,16.1,-,N/A,,Overcast,260,2013-08-25 04:16:00
7:36 PM,55.4,53.6,94,29.92,2.0,WSW,19.6,-,N/A,,Overcast,250,2013-08-25 04:36:00
7:56 PM,55.4,53.6,94,29.93,1.0,WSW,15.0,-,N/A,,Overcast,250,2013-08-25 04:56:00
8:16 PM,55.4,53.6,94,29.92,1.2,WSW,16.1,-,N/A,,Overcast,250,2013-08-25 05:16:00
8:36 PM,55.4,53.6,94,29.92,9.0,West,17.3,23.0,N/A,,Mostly Cloudy,260,2013-08-25 05:36:00
8:56 PM,55.4,53.6,94,29.93,10.0,West,18.4,-,N/A,,Clear,260,2013-08-25 05:56:00
9:16 PM,55.4,51.8,88,29.94,10.0,West,16.1,21.9,N/A,,Clear,260,2013-08-25 06:16:00
9:36 PM,55.4,51.8,88,29.93,10.0,West,18.4,24.2,N/A,,Clear,260,2013-08-25 06:36:00
9:56 PM,55.4,51.8,88,29.94,10.0,West,19.6,24.2,N/A,,Clear,260,2013-08-25 06:56:00
10:16 PM,55.4,51.8,88,29.95,10.0,WSW,24.2,-,N/A,,Clear,250,2013-08-25 07:16:00
10:36 PM,53.6,51.8,94,29.95,10.0,West,18.4,-,N/A,,Clear,260,2013-08-25 07:36:00
10:56 PM,55.4,51.8,88,29.95,10.0,West,13.8,20.7,N/A,,Clear,260,2013-08-25 07:56:00
11:16 PM,55.4,51.8,88,29.95,10.0,WSW,8.1,-,N/A,,Clear,250,2013-08-25 08:16:00
11:36 PM,55.4,51.8,88,29.95,10.0,SW,10.4,19.6,N/A,,Clear,220,2013-08-25 08:36:00
11:56 PM,55.4,51.8,88,29.96,10.0,SW,12.7,-,N/A,,Clear,220,2013-08-25 08:56:00